Location: Arboyeti
(42.1122°N, 44.6017°E)
Time: 19:42:35
(UTC+00:00)

X-37B - Pass Details

Date: 19 April 2021
Orbit: 386 x 389 km, 45.0° (Epoch: 08 May)

Event Time Altitude Azimuth Distance (km) Brightness Sun altitude
Exits shadow 23:52:32 33° 75° (ENE) 672 2.2 -23.4°
Drops below altitude 10° 23:54:27 10° 72° (ENE) 1,414 4.3 -23.2°
Sets 23:56:31 0° 72° (ENE) 2,270 5.6 -22.9°
